Weather History for Plant City, FL

Change the Weather History Date:

Saturday, December 22, 2012

  Actual Average Record
Temperature  
Mean Temperature 52 °F -  
Max Temperature 66 °F 73 °F 87 °F (2013)
Min Temperature 37 °F 50 °F 26 °F (1975)
Degree Days  
Heating Degree Days 12    
Growing Degree Days 2 (Base 50)    
Moisture  
Dew Point 23 °F    
Average Humidity 47    
Maximum Humidity 100    
Minimum Humidity 9    
Precipitation  
Precipitation 0.00 in - - ()
Sea Level Pressure  
Sea Level Pressure 30.27 in    
Wind  
Wind Speed 5 mph (NNW)    
Max Wind Speed 14 mph    
Max Gust Speed 16 mph    
Visibility 10 miles    
Events      
Averages and records for this station are not official NWS values.
T = Trace of Precipitation, MM = Missing Value Source: NWS Daily Summary

Daily Weather History Graph

Daily Weather History Graph

Search for Another Location

Airport:

Trip Planner

Search our weather history database for the weather conditions in past years. The results will help you decide how hot, cold, wet, or windy it might be!

Date:

Astronomy

Dec. 22, 2012 Rise Set
Actual Time 7:16 AM EST 5:38 PM EST
Civil Twilight 6:50 AM EST 6:04 PM EST
Nautical Twilight 6:21 AM EST 6:33 PM EST
Astronomical Twilight 5:52 AM EST 7:02 PM EST
Moon 1:42 PM EST (12/22) 2:16 AM EST (12/22)
Length of Visible Light 11h 13m
Length of Day
10h 22m
Waxing Gibbous, 73% of the Moon is Illuminated
Dec 22
Waxing Gibbous
Dec 28
Full
Jan 4
Last Quarter
Jan 11
New
Jan 18
First Quarter

Hourly Weather History & Observations

Time (EST) Temp. Windchill Dew Point Humidity Pressure Visibility Wind Dir Wind Speed Gust Speed Precip Events Conditions
12:15 AM 42.8 °F - 39.2 °F 87% 30.24 in 10.0 mi Calm Calm - N/A   Clear
12:35 AM 42.8 °F 41.1 °F 39.2 °F 87% 30.24 in 10.0 mi NNW 3.5 mph - N/A   Clear
12:55 AM 42.8 °F - 39.2 °F 87% 30.24 in 10.0 mi Calm Calm - N/A   Clear
1:15 AM 41.0 °F - 37.4 °F 87% 30.24 in 10.0 mi Calm Calm - N/A   Clear
1:35 AM 41.0 °F 39.0 °F 41.0 °F 100% 30.24 in 10.0 mi North 3.5 mph - N/A   Clear
1:55 AM 41.0 °F 39.0 °F 41.0 °F 100% 30.25 in 10.0 mi North 3.5 mph - N/A   Clear
2:15 AM 42.8 °F 40.1 °F 39.2 °F 87% 30.25 in 10.0 mi North 4.6 mph - N/A   Clear
2:35 AM 42.8 °F 39.3 °F 35.6 °F 76% 30.25 in 10.0 mi North 5.8 mph - N/A   Clear
2:55 AM 42.8 °F 38.0 °F 33.8 °F 70% 30.25 in 10.0 mi North 8.1 mph - N/A   Clear
3:15 AM 42.8 °F 38.6 °F 32.0 °F 66% 30.25 in 10.0 mi North 6.9 mph - N/A   Clear
3:35 AM 42.8 °F 37.0 °F 32.0 °F 66% 30.25 in 10.0 mi North 10.4 mph - N/A   Clear
3:55 AM 42.8 °F 36.6 °F 30.2 °F 61% 30.25 in 10.0 mi North 11.5 mph - N/A   Clear
4:15 AM 42.8 °F 36.2 °F 30.2 °F 61% 30.25 in 10.0 mi North 12.7 mph 16.1 mph N/A   Clear
4:35 AM 41.0 °F 33.9 °F 30.2 °F 65% 30.24 in 10.0 mi North 12.7 mph - N/A   Clear
4:55 AM 41.0 °F 35.8 °F 28.4 °F 61% 30.25 in 10.0 mi North 8.1 mph - N/A   Clear
5:15 AM 41.0 °F 35.2 °F 26.6 °F 57% 30.25 in 10.0 mi North 9.2 mph - N/A   Clear
5:35 AM 41.0 °F 35.8 °F 26.6 °F 57% 30.26 in 10.0 mi NNW 8.1 mph - N/A   Clear
5:55 AM 41.0 °F 35.8 °F 24.8 °F 53% 30.26 in 10.0 mi North 8.1 mph - N/A   Clear
6:15 AM 41.0 °F 35.2 °F 21.2 °F 45% 30.27 in 10.0 mi North 9.2 mph - N/A   Clear
6:35 AM 41.0 °F 35.8 °F 19.4 °F 42% 30.27 in 10.0 mi North 8.1 mph - N/A   Clear
7:15 AM 39.2 °F 35.0 °F 19.4 °F 45% 30.29 in 10.0 mi NNW 5.8 mph - N/A   Clear
7:35 AM 39.2 °F - 21.2 °F 49% 30.30 in 10.0 mi Calm Calm - N/A   Clear
7:55 AM 39.2 °F 37.0 °F 23.0 °F 52% 30.30 in 10.0 mi NNW 3.5 mph - N/A   Clear
8:15 AM 41.0 °F 37.1 °F 23.0 °F 49% 30.31 in 10.0 mi NNW 5.8 mph - N/A   Clear
8:35 AM 42.8 °F 39.3 °F 21.2 °F 42% 30.32 in 10.0 mi NNW 5.8 mph - N/A   Clear
8:55 AM 44.6 °F 41.4 °F 19.4 °F 37% 30.33 in 10.0 mi North 5.8 mph - N/A   Clear
9:15 AM 46.4 °F 42.4 °F 17.6 °F 32% 30.33 in 10.0 mi NNW 8.1 mph - N/A   Clear
9:35 AM 46.4 °F 41.9 °F 17.6 °F 32% 30.34 in 10.0 mi North 9.2 mph - N/A   Clear
9:55 AM 48.2 °F - 17.6 °F 30% 30.34 in 10.0 mi NNW 10.4 mph - N/A   Clear
10:15 AM 50.0 °F - 19.4 °F 30% 30.34 in 10.0 mi NW 6.9 mph - N/A   Clear
10:35 AM 51.8 °F - 17.6 °F 26% 30.33 in 10.0 mi North 6.9 mph - N/A   Clear
10:55 AM 53.6 °F - 19.4 °F 26% 30.33 in 10.0 mi NNW 5.8 mph - N/A   Clear
11:15 AM 55.4 °F - 15.8 °F 21% 30.32 in 10.0 mi NNW 6.9 mph - N/A   Clear
11:35 AM 55.4 °F - 15.8 °F 21% 30.31 in 10.0 mi NW 8.1 mph - N/A   Clear
11:55 AM 57.2 °F - 12.2 °F 17% 30.30 in 10.0 mi NNW 10.4 mph - N/A   Clear
12:15 PM 59.0 °F - 12.2 °F 16% 30.30 in 10.0 mi North 5.8 mph - N/A   Clear
12:35 PM 59.0 °F - 8.6 °F 14% 30.29 in 10.0 mi NNW 9.2 mph 16.1 mph N/A   Clear
12:55 PM 60.8 °F - 8.6 °F 13% 30.28 in 10.0 mi WNW 10.4 mph - N/A   Clear
1:15 PM 62.6 °F - 6.8 °F 11% 30.27 in 10.0 mi NW 13.8 mph - N/A   Clear
1:35 PM 62.6 °F - 5.0 °F 10% 30.26 in 10.0 mi NNW 4.6 mph - N/A   Clear
1:55 PM 62.6 °F - 6.8 °F 11% 30.25 in 10.0 mi North 5.8 mph - N/A   Clear
2:15 PM 64.4 °F - 3.2 °F 9% 30.24 in 10.0 mi NNW 9.2 mph - N/A   Clear
2:35 PM 64.4 °F - 3.2 °F 9% 30.24 in 10.0 mi NNW 8.1 mph - N/A   Clear
2:55 PM 64.4 °F - 5.0 °F 10% 30.24 in 10.0 mi NNW 4.6 mph - N/A   Clear
3:15 PM 64.4 °F - 3.2 °F 9% 30.24 in 10.0 mi NNW 6.9 mph - N/A   Clear
3:35 PM 66.2 °F - 5.0 °F 9% 30.23 in 10.0 mi NNW 3.5 mph - N/A   Clear
3:55 PM 64.4 °F - 3.2 °F 9% 30.23 in 10.0 mi NW 5.8 mph - N/A   Clear
4:15 PM 64.4 °F - 5.0 °F 10% 30.23 in 10.0 mi NNW 3.5 mph - N/A   Clear
4:35 PM 64.4 °F - 8.6 °F 11% 30.23 in 10.0 mi NNW 5.8 mph - N/A   Clear
4:55 PM 62.6 °F - 14.0 °F 15% 30.24 in 10.0 mi WNW 3.5 mph - N/A   Clear
5:35 PM 57.2 °F - 19.4 °F 23% 30.24 in 10.0 mi WNW 5.8 mph - N/A   Clear
5:55 PM 55.4 °F - 21.2 °F 26% 30.25 in 10.0 mi WNW 4.6 mph - N/A   Clear
6:15 PM 55.4 °F - 21.2 °F 26% 30.25 in 10.0 mi WNW 4.6 mph - N/A   Clear
6:35 PM 53.6 °F - 23.0 °F 30% 30.25 in 10.0 mi NW 4.6 mph - N/A   Clear
6:55 PM 51.8 °F - 23.0 °F 33% 30.26 in 10.0 mi NW 3.5 mph - N/A   Clear
7:15 PM 48.2 °F - 26.6 °F 43% 30.26 in 10.0 mi Calm Calm - N/A   Clear
7:35 PM 50.0 °F - 26.6 °F 40% 30.27 in 10.0 mi Calm Calm - N/A   Clear
7:55 PM 46.4 °F - 30.2 °F 53% 30.27 in 10.0 mi Calm Calm - N/A   Clear
8:15 PM 44.6 °F - 32.0 °F 61% 30.27 in 10.0 mi Calm Calm - N/A   Clear
8:35 PM 44.6 °F 43.1 °F 32.0 °F 61% 30.28 in 10.0 mi NW 3.5 mph - N/A   Clear
8:55 PM 44.6 °F 42.2 °F 32.0 °F 61% 30.28 in 10.0 mi NW 4.6 mph - N/A   Clear
9:15 PM 44.6 °F - 32.0 °F 61% 30.29 in 10.0 mi Calm Calm - N/A   Clear
9:35 PM 41.0 °F - 32.0 °F 70% 30.28 in 10.0 mi Calm Calm - N/A   Clear
9:55 PM 41.0 °F - 35.6 °F 81% 30.28 in 10.0 mi Calm Calm - N/A   Clear
10:15 PM 41.0 °F - 33.8 °F 76% 30.29 in 10.0 mi Calm Calm - N/A   Clear
10:35 PM 41.0 °F - 33.8 °F 76% 30.29 in 10.0 mi Calm Calm - N/A   Clear
10:55 PM 39.2 °F - 35.6 °F 87% 30.29 in 10.0 mi Calm Calm - N/A   Clear
11:15 PM 39.2 °F - 35.6 °F 87% 30.29 in 10.0 mi Calm Calm - N/A   Clear
11:35 PM 39.2 °F 37.0 °F 35.6 °F 87% 30.28 in 10.0 mi North 3.5 mph - N/A   Clear
11:55 PM 37.4 °F - 35.6 °F 93% 30.28 in 10.0 mi Calm Calm - N/A   Clear